Regional Weather Roundup
Issued by NWS Green Bay, WI

Home | Current Version | Previous Version | Text Only | Print | Product List | Glossary On
Versions: 1 2 3 4 5 6 7 8 9 10 11 12 13 14 15 16 17 18 19 20 21 22 23 24 25 26 27 28 29 30 31 32 33 34 35 36 37 38 39 40 41 42 43 44 45 46 47 48 49 50
000
ASUS43 KGRB 010300
RWRGRB

NORTH-CENTRAL AND NORTHEAST WISCONSIN REGIONAL WEATHER ROUNDUP
NATIONAL WEATHER SERVICE GREEN BAY WI
1000 PM CDT MON AUG 31 2015

WIZ005-009-010>012-018-019-010400-
NORTH CENTRAL WISCONSIN

CITY           SKY/WX    TMP DP  RH WIND       PRES   REMARKS
IRONWOOD       CLEAR     72  68  88 SW9       29.90S
MANITOWISH WTR NOT AVBL
ARBOR VITAE    NOT AVBL
EAGLE RIVER    NOT AVBL
LAND O LAKES   NOT AVBL
RHINELANDER    CLEAR     68  65  90 SW3       30.01S
PHILLIPS       CLEAR     69  68  96 S7        29.98R
ANTIGO         NOT AVBL
TOMAHAWK       NOT AVBL
MERRILL        CLEAR     67  67 100 CALM      30.00S FOG
$$

WIZ013-073-010400-
NORTHEAST WISCONSIN

CITY           SKY/WX    TMP DP  RH WIND       PRES   REMARKS
IRON MOUNTAIN  CLEAR     67  64  90 S3        29.98R
MARINETTE      CLEAR     68  64  88 SW6       29.98S
$$

WIZ017-030-035>037-045-010400-
CENTRAL WISCONSIN

CITY           SKY/WX    TMP DP  RH WIND       PRES   REMARKS
MEDFORD        NOT AVBL
WAUSAU         CLEAR     70  67  90 S5        29.98S
MOSINEE        NOT AVBL
MARSHFIELD     CLEAR     68  65  90 S6        30.00R FOG
WISC RAPIDS    LGT RAIN  71  66  84 S5        30.01R
STEVENS POINT  NOT AVBL
WAUPACA        NOT AVBL
SHAWANO        NOT AVBL
CLINTONVILLE   CLEAR     64  63  94 CALM      29.99S FOG
WAUTOMA        NOT AVBL
$$

WIZ038-039-048-051-010400-
FOX VALLEY

CITY           SKY/WX    TMP DP  RH WIND       PRES   REMARKS
NWS GREEN BAY  CLEAR     69  67  93 S5        30.00R FOG
APPLETON       PTCLDY    70  68  94 VRB5      30.00R
OSHKOSH        CLEAR     66  65  96 S5        30.01R FOG
FOND DU LAC    PTCLDY    67  66  97 S3        30.02R FOG
$$

WIZ022-050-052-010400-
EAST CENTRAL WISCONSIN

CITY           SKY/WX    TMP DP  RH WIND       PRES   REMARKS
EPHRAIM        FAIR      62  61  96 S6        29.99S FOG
STURGEON BAY   CLEAR     64  61  88 S8        30.02S
MANITOWOC      NOT AVBL
SHEBOYGAN      CLEAR     63  62  97 S3        30.03R FOG
$$

LMZ563-521-522-541>543-010400-
LAKESHORE

STATION/POSITION TIME  TEMP    WIND        PRES    VSBY  WAVE
                       AIR SEA DIR/SP/G                  HT/PER
                 (UTC) (F)     (DEG/KT/KT) (MB)    (MI)  (FT/S)
SHEBOYGAN LKSHOR 0200   63     180/ 13/ 14 1016.9R
KEWAUNEE LKSHORE 0200   50     170/  3/  4 1015.3R
NORTHPORT PIER   0200   63     160/  4/  8 1015.6R
N MID LAKE BUOY  0150   66 65  210/ 16/ 17 1015.3R         3/ 4
CHAMBERS ISLAND  0200   69     160/  3/  6 1015.6R
MENOMINEE LKSHOR 0200   69     190/  6/  8 1014.3R
$$


USA.gov is the U.S. government's official web portal to all federal, state and local government web resources and services.